When you browse on this site, cookies collect data to enhance your experience and personalize the content and advertising you see.
Visit our Privacy Policy to learn more. By continuing to use the site, you agree to this use of cookies and data.
  • în România
  • Lista ţărilor
  • Pe 7 zile
  • Temperatura apei
  • Hartă satelitară
  • Meteo pe hartă
  • Widget-uri
  • user-avatar
    Intrare

    Meteo pe oră la Kowala

    Astăzi, 22 Mai, Miercuri

    Timp Temperatura Precipitaţii Vânt Presiune Umiditate
    00:00 +13°C° 0.7 mm 5 m/s 734 mmHg 92%
    01:00 +13°C° 0 mm 5 m/s 733 mmHg 94%
    02:00 +13°C° 0.8 mm 4 m/s 733 mmHg 95%
    03:00 +13°C° 0.8 mm 4 m/s 733 mmHg 95%
    04:00 +13°C° 0.8 mm 4 m/s 733 mmHg 95%
    05:00 +13°C° 0.4 mm 4 m/s 733 mmHg 94%
    06:00 +13°C° 0.4 mm 4 m/s 734 mmHg 92%
    07:00 +14°C° 0 mm 4 m/s 733 mmHg 90%
    08:00 +14°C° 0.6 mm 4 m/s 734 mmHg 90%
    09:00 +14°C° 0.6 mm 4 m/s 734 mmHg 91%
    10:00 +14°C° 0.6 mm 4 m/s 734 mmHg 91%
    11:00 +14°C° 0.3 mm 4 m/s 734 mmHg 90%
    12:00 +14°C° 0.3 mm 5 m/s 735 mmHg 89%
    13:00 +15°C° 0.3 mm 5 m/s 735 mmHg 88%
    14:00 +15°C° 0.5 mm 5 m/s 735 mmHg 86%
    15:00 +16°C° 0.5 mm 5 m/s 735 mmHg 84%
    16:00 +17°C° 0.5 mm 6 m/s 735 mmHg 82%
    17:00 +16°C° 1.6 mm 5 m/s 735 mmHg 85%
    18:00 +15°C° 1.6 mm 5 m/s 735 mmHg 87%
    19:00 +15°C° 1.6 mm 5 m/s 735 mmHg 90%
    20:00 +14°C° 0.8 mm 6 m/s 736 mmHg 91%
    21:00 +14°C° 0.8 mm 6 m/s 736 mmHg 93%
    22:00 +14°C° 0.8 mm 6 m/s 737 mmHg 94%
    23:00 +14°C° 0.3 mm 6 m/s 737 mmHg 94%

    Mâine, 23 Mai, Joi

    Timp Temperatura Precipitaţii Vânt Presiune Umiditate
    00:00 +14°C° 0.3 mm 6 m/s 737 mmHg 94%
    01:00 +14°C° 0.3 mm 6 m/s 738 mmHg 95%
    02:00 +14°C° 0.3 mm 6 m/s 738 mmHg 95%
    03:00 +14°C° 0.3 mm 5 m/s 738 mmHg 95%
    04:00 +14°C° 0.3 mm 5 m/s 738 mmHg 95%
    05:00 +14°C° 0.4 mm 5 m/s 738 mmHg 94%
    06:00 +14°C° 0.4 mm 5 m/s 739 mmHg 93%
    07:00 +15°C° 0.4 mm 5 m/s 739 mmHg 92%
    08:00 +15°C° 0.9 mm 5 m/s 739 mmHg 92%
    09:00 +15°C° 0.9 mm 6 m/s 740 mmHg 91%
    10:00 +15°C° 0.9 mm 6 m/s 740 mmHg 91%
    11:00 +15°C° 1.1 mm 6 m/s 740 mmHg 91%
    12:00 +14°C° 1.1 mm 6 m/s 740 mmHg 92%
    13:00 +14°C° 1.1 mm 6 m/s 741 mmHg 92%
    14:00 +13°C° 0.8 mm 6 m/s 741 mmHg 92%
    15:00 +13°C° 0.8 mm 6 m/s 741 mmHg 93%
    16:00 +13°C° 0.8 mm 6 m/s 741 mmHg 93%
    17:00 +13°C° 1.2 mm 6 m/s 741 mmHg 93%
    18:00 +13°C° 1.2 mm 6 m/s 741 mmHg 94%
    19:00 +12°C° 1.2 mm 5 m/s 741 mmHg 94%
    20:00 +12°C° 1 mm 5 m/s 741 mmHg 94%
    21:00 +13°C° 1 mm 5 m/s 741 mmHg 94%
    22:00 +13°C° 1 mm 6 m/s 742 mmHg 94%
    23:00 +13°C° 1 mm 5 m/s 742 mmHg 94%

    Poimâine, 24 Mai, Vineri

    Timp Temperatura Precipitaţii Vânt Presiune Umiditate
    00:00 +13°C° 1 mm 5 m/s 742 mmHg 95%
    01:00 +13°C° 1 mm 5 m/s 742 mmHg 95%
    02:00 +13°C° 0.7 mm 5 m/s 742 mmHg 95%
    03:00 +12°C° 0.7 mm 4 m/s 742 mmHg 95%
    04:00 +12°C° 0.7 mm 4 m/s 742 mmHg 95%
    05:00 +12°C° 0.7 mm 4 m/s 742 mmHg 94%
    06:00 +11°C° 0.7 mm 3 m/s 742 mmHg 93%
    07:00 +11°C° 0.7 mm 3 m/s 742 mmHg 93%
    08:00 +12°C° 0.5 mm 3 m/s 742 mmHg 90%
    09:00 +12°C° 0.5 mm 3 m/s 742 mmHg 88%
    10:00 +13°C° 0.5 mm 3 m/s 742 mmHg 85%
    11:00 +14°C° 0 mm 3 m/s 742 mmHg 81%
    12:00 +16°C° 0 mm 3 m/s 742 mmHg 77%
    13:00 +18°C° 0 mm 3 m/s 742 mmHg 72%
    14:00 +18°C° 0 mm 3 m/s 741 mmHg 74%
    15:00 +18°C° 0 mm 3 m/s 741 mmHg 76%
    16:00 +18°C° 0 mm 3 m/s 741 mmHg 77%
    17:00 +17°C° 0 mm 3 m/s 740 mmHg 79%
    18:00 +17°C° 0 mm 2 m/s 740 mmHg 81%
    19:00 +16°C° 0 mm 2 m/s 740 mmHg 82%
    20:00 +16°C° 0 mm 2 m/s 741 mmHg 82%
    21:00 +15°C° 0 mm 2 m/s 741 mmHg 82%
    22:00 +15°C° 0 mm 2 m/s 741 mmHg 82%
    23:00 +14°C° 0 mm 2 m/s 741 mmHg 84%

    25 Mai, Sâmbătă

    Timp Temperatura Precipitaţii Vânt Presiune Umiditate
    00:00 +13°C° 0 mm 2 m/s 741 mmHg 85%
    01:00 +13°C° 0 mm 2 m/s 741 mmHg 86%
    02:00 +13°C° 0 mm 2 m/s 741 mmHg 87%
    03:00 +12°C° 0 mm 2 m/s 741 mmHg 88%
    04:00 +12°C° 0 mm 2 m/s 741 mmHg 89%
    05:00 +13°C° 0 mm 2 m/s 741 mmHg 86%
    06:00 +15°C° 0 mm 2 m/s 741 mmHg 83%
    07:00 +16°C° 0 mm 2 m/s 741 mmHg 81%
    08:00 +17°C° 0 mm 2 m/s 741 mmHg 76%
    09:00 +19°C° 0 mm 2 m/s 741 mmHg 71%
    10:00 +20°C° 0 mm 2 m/s 741 mmHg 66%
    11:00 +20°C° 0.1 mm 3 m/s 741 mmHg 65%
    12:00 +21°C° 0.1 mm 3 m/s 741 mmHg 63%
    13:00 +22°C° 0.1 mm 3 m/s 740 mmHg 61%
    14:00 +22°C° 0.2 mm 3 m/s 740 mmHg 62%
    15:00 +22°C° 0.2 mm 3 m/s 740 mmHg 63%
    16:00 +22°C° 0.2 mm 3 m/s 740 mmHg 64%
    17:00 +20°C° 0.1 mm 3 m/s 740 mmHg 71%
    18:00 +18°C° 0.1 mm 3 m/s 740 mmHg 77%
    19:00 +17°C° 0.1 mm 2 m/s 740 mmHg 84%
    20:00 +16°C° 0 mm 2 m/s 740 mmHg 86%
    21:00 +15°C° 0 mm 1 m/s 741 mmHg 87%
    22:00 +13°C° 0 mm 1 m/s 741 mmHg 89%
    23:00 +13°C° 0 mm 1 m/s 741 mmHg 90%

    26 Mai, Duminică

    Timp Temperatura Precipitaţii Vânt Presiune Umiditate
    00:00 +13°C° 0 mm 1 m/s 741 mmHg 90%
    01:00 +13°C° 0 mm 2 m/s 741 mmHg 91%
    02:00 +13°C° 0 mm 2 m/s 741 mmHg 91%
    03:00 +13°C° 0 mm 1 m/s 741 mmHg 91%
    04:00 +12°C° 0 mm 1 m/s 741 mmHg 91%
    05:00 +14°C° 0 mm 2 m/s 741 mmHg 89%
    06:00 +15°C° 0 mm 2 m/s 741 mmHg 86%
    07:00 +16°C° 0 mm 2 m/s 741 mmHg 84%
    08:00 +17°C° 0 mm 2 m/s 741 mmHg 80%
    09:00 +18°C° 0 mm 3 m/s 740 mmHg 76%
    10:00 +19°C° 0 mm 3 m/s 740 mmHg 72%
    11:00 +19°C° 0.3 mm 3 m/s 740 mmHg 71%
    12:00 +20°C° 0.3 mm 4 m/s 740 mmHg 70%
    13:00 +20°C° 0.3 mm 5 m/s 740 mmHg 69%
    14:00 +20°C° 0.3 mm 5 m/s 739 mmHg 70%
    15:00 +19°C° 0.3 mm 4 m/s 739 mmHg 71%
    16:00 +19°C° 0.3 mm 4 m/s 739 mmHg 72%
    17:00 +17°C° 0 mm 3 m/s 740 mmHg 74%
    18:00 +16°C° 0 mm 2 m/s 740 mmHg 76%
    19:00 +15°C° 0 mm 1 m/s 740 mmHg 79%
    20:00 +14°C° 0 mm 2 m/s 740 mmHg 78%
    21:00 +13°C° 0 mm 2 m/s 741 mmHg 78%
    22:00 +11°C° 0 mm 3 m/s 741 mmHg 77%
    23:00 +10°C° 0 mm 3 m/s 741 mmHg 77%

    27 Mai, Luni

    Timp Temperatura Precipitaţii Vânt Presiune Umiditate
    00:00 +10°C° 0 mm 2 m/s 742 mmHg 77%
    01:00 +9°C° 0 mm 2 m/s 742 mmHg 77%
    02:00 +9°C° 0 mm 2 m/s 742 mmHg 80%
    03:00 +8°C° 0 mm 2 m/s 742 mmHg 84%
    04:00 +9°C° 0 mm 1 m/s 742 mmHg 87%
    05:00 +10°C° 0 mm 1 m/s 742 mmHg 83%
    06:00 +12°C° 0 mm 1 m/s 742 mmHg 80%
    07:00 +14°C° 0 mm 1 m/s 742 mmHg 76%
    08:00 +15°C° 0 mm 1 m/s 742 mmHg 72%
    09:00 +17°C° 0 mm 2 m/s 742 mmHg 67%
    10:00 +18°C° 0 mm 2 m/s 741 mmHg 63%
    11:00 +20°C° 0 mm 1 m/s 741 mmHg 61%
    12:00 +21°C° 0 mm 1 m/s 741 mmHg 59%
    13:00 +22°C° 0 mm 1 m/s 741 mmHg 58%
    14:00 +22°C° 0 mm 1 m/s 740 mmHg 60%
    15:00 +21°C° 0 mm 2 m/s 739 mmHg 62%
    16:00 +21°C° 0 mm 2 m/s 739 mmHg 65%
    17:00 +20°C° 0 mm 3 m/s 739 mmHg 71%
    18:00 +19°C° 0 mm 3 m/s 738 mmHg 76%
    19:00 +18°C° 0 mm 3 m/s 738 mmHg 82%
    20:00 +17°C° 0 mm 3 m/s 738 mmHg 85%
    21:00 +16°C° 0 mm 3 m/s 738 mmHg 87%
    22:00 +16°C° 0 mm 2 m/s 737 mmHg 89%
    23:00 +15°C° 0 mm 2 m/s 737 mmHg 90%
    Arată mai mult